Flag for Madagascar Weather past 2 weeks in Toamasina, Madagascar

Now
66 °F

Passing clouds.


Feels Like: 66 °F
Forecast: 64 / 79 °F
Wind: No wind

Location: Tamatave

Current Time: Jul 29, 2015 at 11:59:02 PM

Latest Report: Jul 29, 2015 at 11:00 PM


Visibility: N/A

Pressure: 30.15 "Hg

Humidity: 94%

Dew point: 64 °F

Location of ToamasinaLocation

Historic Weather in Toamasina — Graph

°F

Toamasina temperature yesterday

Maximum temperature yesterday: 79 °F (at 10:00 AM)
Minimum temperature yesterday: 66 °F (at 4:00 AM)
Average temperature yesterday: 72 °F

Past Weeks' High & Low Weather Summary

 TemperatureHumidityPressure
High81 °F (Jul 19, 11:00 AM)100% (Jul 15, 1:00 AM)30.24 "Hg (Jul 15, 1:00 AM)
Low63 °F (Jul 15, 1:00 AM)42% (Jul 26, 11:00 AM)30.01 "Hg (Jul 27, 4:00 PM)
Average71 °F84%30.15 "Hg
* Reported Jul 14 11:00 PM — Jul 29 11:00 PM, Toamasina, Weather by CustomWeather, © 2015

Note: Actual official high and low records may vary slightly from our data, if they occured in-between our weather recording intervals... More about our weather records

Advertising

Toamasina weather history for previous 24 hours

 ConditionsComfort  
Time TempWeatherWind HumidityBarometerVisibility
11:00 PM
Wed, Jul 29
66 °FPassing clouds.No wind94%30.15 "HgN/A
10:00 PM66 °FPassing clouds.No wind94%30.15 "HgN/A
9:00 PM68 °FPassing clouds.No wind94%30.12 "HgN/A
8:00 PM68 °FPassing clouds.No wind88%30.12 "HgN/A
7:00 PM72 °FPassing clouds.No wind83%30.12 "HgN/A
6:00 PM75 °FPassing clouds.2 mph74%30.09 "HgN/A
5:00 PM77 °FScattered clouds.5 mph65%30.09 "HgN/A
4:00 PM79 °FPassing clouds.7 mph70%30.07 "HgN/A
3:00 PM79 °FPassing clouds.7 mph65%30.07 "HgN/A
2:00 PM81 °FPassing clouds.7 mph62%30.07 "HgN/A
1:00 PM79 °FScattered clouds.7 mph61%30.09 "HgN/A
12:00 PM81 °FScattered clouds.9 mph62%30.09 "HgN/A
11:00 AM79 °FScattered clouds.9 mph65%30.12 "HgN/A
10:00 AM77 °FScattered clouds.5 mph69%30.12 "HgN/A
9:00 AM77 °FPassing clouds.7 mph74%30.12 "HgN/A
8:00 AM72 °FScattered clouds.5 mph88%30.12 "HgN/A
7:00 AM64 °FScattered clouds.No wind94%30.12 "HgN/A
5:00 AM64 °FPassing clouds.No wind100%30.09 "HgN/A
4:00 AM64 °FPassing clouds.No wind100%30.09 "HgN/A
3:00 AM66 °FPassing clouds.No wind94%30.09 "HgN/A
2:00 AM64 °FPassing clouds.No wind100%30.09 "HgN/A
1:00 AM64 °FPassing clouds.No wind100%30.12 "HgN/A
12:00 AM66 °FPassing clouds.No wind94%30.12 "HgN/A
11:00 PM
Tue, Jul 28
66 °FPassing clouds.No wind94%30.12 "HgN/A
Weather by CustomWeather, © 2015

See weather overviewHow to use our weather pages